Lid_Strength_Index
1 0 1 1 0 1 0 0 0 -0 -0 0 0 0 0 0 -0 0 0 1 1 1 1 1 1 1 1 1 1 1 2 2 4 3 1 1 1 2 2 1 1 2 2
1 1 1 0 0 0 1 0 0 1 -0 -0 0 0 0 0 0 0 1 1 1 1 1 1 1 1 1 1 1 1 2 1 3 4 3 3 2 2 2 2 2 1 2
1 1 1 1 1 1 1 0 0 -0 -0 -0 0 0 0 0 1 1 1 1 1 1 1 1 1 1 1 1 1 2 1 1 2 3 3 2 2 2 3 3 3 3 2
1 1 2 1 1 1 1 0 0 -0 0 0 0 0 0 1 1 1 1 1 1 1 1 0 1 1 2 1 2 2 1 2 2 3 3 3 3 3 3 4 5 3 3
1 1 2 1 1 1 1 0 0 0 0 0 0 0 0 1 1 1 1 1 1 1 1 1 0 1 2 2 1 1 2 2 3 3 4 3 4 4 4 5 4 3 3
1 1 1 1 1 1 1 1 0 1 1 0 1 1 1 1 6 5 2 1 0 1 1 1 0 2 3 6 5 4 2 2 3 3 4 4 4 3 3 4 4 4 4
1 1 2 1 2 1 1 1 1 1 0 1 1 1 1 0 6 6 6 1 0 1 1 1 1 1 1 1 5 6 6 6 4 2 3 3 3 3 2 2 2 2 2
1 1 1 1 1 1 1 1 1 1 1 1 1 1 1 1 6 7 6 -0 1 0 0 0 1 1 1 1 1 2 2 2 2 1 2 2 2 3 1 1 1 1 0
1 1 1 1 2 1 1 1 1 1 1 1 1 1 1 1 8 8 5 0 1 1 1 0 0 1 8 7 2 4 4 4 6 7 7 8 8 7 3 0 1 2 3
1 1 1 1 1 1 1 1 1 0 1 1 1 1 4 1 9 9 5 1 2 2 0 0 6 4 8 7 2 3 4 3 3 2 3 5 5 4 6 -1 0 2 2
1 1 1 1 1 0 1 1 0 1 1 1 1 1 1 1 3 9 7 0 1 1 2 1 1 9 8 6 5 2 3 2 4 1 1 1 0 -0 -0 -1 -1 0 2
1 1 1 1 1 1 1 1 1 1 1 1 2 2 1 0 5 9 9 6 4 1 1 1 3 11 10 8 5 9 8 4 0 1 1 1 1 1 -0 -1 -1 -1 -2
1 1 1 1 1 1 1 1 2 1 2 2 2 2 2 1 0 8 9 9 7 1 0 5 10 10 10 7 9 8 8 1 1 2 1 1 1 -0 -1 -1 -0 -0 -1
1 1 1 1 1 1 1 1 1 2 2 2 2 2 2 2 1 1 0 1 7 3 6 3 4 6 7 4 3 3 0 0 1 1 1 0 -0 0 0 -0 0 1 1
1 1 1 1 1 1 1 1 1 0 1 1 1 1 2 2 1 3 2 1 0 2 1 0 1 1 1 1 1 0 0 0 1 0 1 1 1 1 0 -0 0 2 3
1 1 1 1 1 1 1 1 10 8 9 9 9 4 1 6 9 9 9 10 10 8 1 1 2 1 1 1 1 1 0 1 0 0 0 1 1 1 1 1 1 2 3
1 1 1 2 1 2 1 2 2 3 8 8 10 9 7 7 10 11 11 11 11 8 1 2 2 1 1 1 1 1 1 0 -0 0 1 1 1 1 3 2 2 2 2
1 6 1 1 1 1 1 1 1 2 2 1 7 6 9 10 11 12 12 9 2 4 1 1 1 1 1 1 1 1 1 1 0 0 0 0 0 1 2 2 3 2 3
1 1 1 1 1 1 1 1 1 1 2 1 1 5 9 12 12 12 11 1 1 1 1 1 1 1 1 0 0 0 0 0 1 1 1 1 0 1 1 2 2 8 6
1 5 3 1 1 1 1 1 1 1 2 2 1 1 1 4 1 1 1 1 1 1 1 1 0 0 0 0 0 0 1 1 0 1 1 0 0 0 1 1 1 2 3
1 1 5 1 1 1 1 1 1 1 1 1 1 1 5 1 1 1 1 1 1 1 1 0 0 0 0 0 0 0 0 0 0 0 0 0 0 1 1 1 1 1 2
1 1 1 1 1 1 1 1 1 1 1 1 1 2 10 1 1 1 1 1 0 0 -0 -0 0 0 0 0 0 0 0 1 0 0 0 0 0 0 1 1 1 1 2
1 1 1 1 1 4 1 1 1 1 1 1 1 1 1 1 1 1 1 0 0 0 -0 -0 0 0 -0 -0 -0 0 1 0 0 -0 0 0 0 1 1 1 1 2 2
1 1 1 1 1 1 1 1 1 4 1 1 1 1 1 1 1 1 0 0 0 -0 -0 -0 -0 -0 -0 -0 -1 -0 0 1 0 -0 -0 0 0 1 0 1 1 2 2
1 1 1 2 2 1 1 1 1 1 1 1 1 1 1 1 1 1 0 0 0 0 -0 -0 -0 -0 -0 -0 -0 -0 3 12 3 6 1 -0 -0 -0 1 2 2 2 5
1 1 1 1 1 1 1 2 1 1 1 1 1 1 1 1 1 1 0 0 0 0 -0 -0 -0 -0 -0 -0 -0 4 12 13 6 12 1 0 1 1 2 2 3 4 8